Regional Weather Roundup
Issued by NWS

Home | Current Version | Previous Version | Graphics & Text | Print | Product List | Glossary On
Versions: 1 2 3 4 5 6 7 8 9 10 11 12 13 14 15 16 17 18 19 20 21 22 23 24 25 26 27 28 29 30 31 32 33 34 35 36 37 38 39 40 41 42 43 44 45 46 47 48
000
ASUS45 KCYS 270010
RWRWY

WYOMING REGIONAL WEATHER ROUNDUP
NATIONAL WEATHER SERVICE CHEYENNE WY
600 PM MDT WED AUG 26 2015

NOTE:  "FAIR" INDICATES FEW OR NO CLOUDS BELOW 12,000 FEET
WITH NO SIGNIFICANT WEATHER AND/OR OBSTRUCTIONS TO VISIBILITY.

WYZ001-270100-
YELLOWSTONE NATIONAL PARK

CITY           SKY/WX    TMP DP  RH WIND       PRES   REMARKS
LK YELLOWSTONE   N/A     59  45  59 CALM      30.45F
6HR MIN TEMP:  58; 6HR MAX TEMP:  69;

W YELLOWSTONE  NOT AVBL

$$
WYZ002>013-054>058-071-098>099-270100-
NORTHERN WYOMING

CITY           SKY/WX    TMP DP  RH WIND       PRES   REMARKS
JACKSON        CLOUDY    57  55  94 NW6       30.37F
CODY           CLOUDY    68  48  49 SW10G20   30.23S
GREYBULL       FAIR      82  43  25 W14       30.09F
6HR MIN TEMP:  80; 6HR MAX TEMP:  89; 6HR PCP: TRACE;

WORLAND        FAIR      84  43  23 NW16      30.10S
6HR MIN TEMP:  82; 6HR MAX TEMP:  89;

SHERIDAN       FAIR      86  37  17 W9G22     30.07R
6HR MIN TEMP:  81; 6HR MAX TEMP:  90;

BUFFALO        FAIR      80  41  24 NW10      30.15R
6HR MIN TEMP:  80; 6HR MAX TEMP:  92;

GILLETTE       FAIR      87  44  22 N13       30.04R
6HR MIN TEMP:  87; 6HR MAX TEMP:  96;

HULETT         FAIR      82  63  51 E8        30.04S
NEWCASTLE      FAIR      88  45  22 SE8       30.02S

$$
WYZ014>020-022>026-101>103-270100-
CENTRAL WYOMING

CITY           SKY/WX    TMP DP  RH WIND       PRES   REMARKS
BIG PINEY      FAIR      69  46  43 N18       30.34F
6HR MIN TEMP:  67; 6HR MAX TEMP:  76; 6HR PCP: TRACE;

PINEDALE       FAIR      64  46  52 NW17G23   30.35F
DUBOIS         MOCLDY    63  45  51 NW7       30.38F
LANDER         FAIR      73  51  46 NW15      30.20F
6HR MIN TEMP:  70; 6HR MAX TEMP:  86; 6HR PCP: TRACE;

RIVERTON       FAIR      72  48  42 NW25G36   30.21S
6HR MIN TEMP:  72; 6HR MAX TEMP:  85;

CASPER         FAIR      87  35  15 N18       30.10S
6HR MIN TEMP:  86; 6HR MAX TEMP:  94;

DOUGLAS        CLOUDY    86  40  19 NW29G41   30.11R
6HR MIN TEMP:  86; 6HR MAX TEMP:  98;


$$
WYZ021-027>030-104>119-270100-
SOUTHERN WYOMING

CITY           SKY/WX    TMP DP  RH WIND       PRES   REMARKS
EVANSTON       CLOUDY    61  53  75 NE8       30.34F
6HR MIN TEMP:  58; 6HR MAX TEMP:  63; 6HR PCP:  0.03;

KEMMERER       CLOUDY    61  48  63 NW13      30.37S
FORT BRIDGER   CLOUDY    63  59  88 N7        30.37F
ROCK SPRINGS   LGT RAIN  60  56  86 SW15      30.35R
6HR MIN TEMP:  59; 6HR MAX TEMP:  78; 6HR PCP: TRACE;

DIXON          FAIR      79  40  25 W7        30.28S
RAWLINS        LGT RAIN  63  54  72 SE12      30.30R
6HR MIN TEMP:  63; 6HR MAX TEMP:  84; 6HR PCP:  0.03;

SARATOGA       MOCLDY    61  52  72 E12G20    30.34R
LARAMIE        FAIR      71  43  36 NW8       30.32S
6HR MIN TEMP:  71; 6HR MAX TEMP:  86; 6HR PCP: TRACE;

CHEYENNE       FAIR      77  45  32 NW5       30.18F
6HR MIN TEMP:  69; 6HR MAX TEMP:  93; 6HR PCP:  0.32;

TORRINGTON     LGT RAIN  82  47  29 VRB6      29.98F
6HR MIN TEMP:  76; 6HR MAX TEMP:  97; 6HR PCP:  0.02;

PINE BLUFFS    FAIR      90  36  14 W6        30.09F

$$



USA.gov is the U.S. government's official web portal to all federal, state and local government web resources and services.